Presure
113 125 132 127 100 100 134 149 124 123 164 113 112 132 133 123 147 135 113 147 130 114 133 104 130 118 138 102 178 101 114 89 82 110 134 126 98 130 121 100 102 130 132 140 139 116 114 131 140
107 120 145 109 107 99 129 109 261 216 105 186 224 133 149 175 187 176 162 259 95 223 128 90 266 96 110 218 145 103 115 96 120 167 136 175 108 124 108 120 101 95 81 80 86 111 128 125 120
105 127 121 152 107 115 140 159 234 217 135 250 212 245 255 259 272 272 214 256 242 238 332 173 78 126 149 67 94 106 228 74 228 232 232 237 78 214 83 103 191 136 121 112 103 133 129 118 130
195 100 201 141 244 213 134 236 244 115 180 239 231 252 255 110 167 256 250 310 267 324 262 264 234 273 79 258 280 236 234 152 151 179 79 246 106 113 91 233 97 128 206 170 87 224 94 93 179
155 139 163 148 172 171 191 221 117 170 244 196 288 316 246 326 267 258 300 148 178 280 334 274 347 263 261 271 266 259 248 233 237 226 218 194 179 105 178 193 155 205 145 221 225 205 94 133 130
180 177 240 188 230 227 219 184 240 238 237 244 195 298 291 286 282 279 262 278 288 285 240 369 185 325 231 181 236 264 245 228 217 234 234 202 193 210 204 147 208 183 204 212 222 220 217 138 100
251 237 169 142 135 203 227 214 237 222 234 237 284 260 274 269 247 253 247 254 122 276 230 232 266 267 239 234 254 244 248 229 201 233 216 205 199 197 191 190 201 188 166 205 198 90 224 213 208
221 138 237 235 220 227 217 227 228 223 277 295 247 253 193 255 241 227 246 251 265 285 241 239 213 229 246 253 231 258 233 219 143 208 206 202 208 203 204 203 206 204 211 208 80 218 212 197 203
176 220 238 223 223 216 216 223 217 181 208 250 256 238 228 229 247 233 249 240 259 254 223 229 221 224 249 238 238 231 218 222 213 172 194 194 200 197 180 187 191 196 183 189 191 197 172 194 185
220 217 212 214 211 215 209 218 208 215 239 225 249 245 208 232 230 235 212 226 262 242 242 237 256 235 252 243 234 222 209 209 207 202 203 185 184 200 195 202 137 208 151 206 169 202 161 128 173
203 214 218 214 215 211 207 211 196 191 191 188 217 244 258 233 223 227 235 205 250 231 239 266 219 228 220 233 227 206 216 202 214 203 200 102 192 191 185 199 178 172 198 171 180 184 211 198 170
179 216 210 200 203 188 210 207 209 224 197 239 189 215 244 234 229 191 213 217 224 216 217 217 223 228 221 96 220 202 195 193 203 184 200 191 192 91 150 110 97 189 149 206 198 162 162 192 186
225 207 202 202 198 182 203 206 199 213 205 165 223 219 236 244 215 203 212 189 225 252 218 250 232 222 199 207 199 199 191 211 186 211 181 180 181 158 190 100 155 192 133 188 166 152 181 220 200
192 213 193 205 192 192 192 196 194 195 202 206 233 209 245 201 246 203 228 199 218 235 238 212 203 213 193 212 208 196 193 198 186 185 194 194 184 185 186 152 201 158 141 154 161 174 180 180 174
191 206 189 196 191 188 188 188 176 202 214 201 224 206 221 271 246 205 203 206 212 205 244 232 202 215 201 204 192 194 205 187 184 188 191 190 193 194 202 138 161 144 136 167 188 191 176 192 187
183 200 210 196 197 192 181 197 187 191 196 206 213 214 211 253 236 203 224 191 179 183 204 211 202 194 195 182 185 183 185 193 191 172 190 182 182 163 185 135 192 185 150 181 176 174 174 178 208
185 177 204 189 186 189 188 187 189 202 190 197 194 209 212 209 236 250 230 225 194 224 200 189 176 199 173 199 177 189 184 180 183 190 181 182 176 172 189 186 177 175 173 166 189 194 172 165 167
177 180 201 189 183 193 186 187 199 179 192 186 200 192 208 211 207 280 281 203 203 202 195 201 203 194 172 191 191 180 178 187 181 189 191 182 176 167 189 185 184 201 170 195 182 173 177 165 193
170 176 188 190 180 179 185 187 204 177 198 176 187 198 200 205 235 240 270 274 195 210 194 203 199 188 197 193 180 179 180 182 185 184 181 182 173 183 186 184 164 187 178 194 175 189 176 184 200
181 187 185 190 196 194 173 183 205 201 196 177 181 198 188 202 216 204 264 259 265 246 210 225 197 193 205 192 176 182 190 175 182 175 183 179 182 175 181 190 185 182 194 179 175 182 194 187 190
184 184 195 179 186 178 183 181 196 181 187 189 166 189 193 199 205 209 220 266 260 268 208 262 193 201 189 191 186 193 188 193 176 169 166 174 190 191 180 171 185 163 168 175 180 177 171 188 180
181 181 182 182 183 179 189 169 187 188 184 176 189 188 187 191 201 212 223 235 225 261 266 202 206 187 188 183 195 182 179 194 182 176 176 172 170 169 172 173 166 175 176 176 189 190 194 190 178
186 191 177 180 191 187 188 182 179 191 182 197 190 159 182 183 193 206 192 213 265 245 263 270 194 206 195 190 187 193 176 181 190 194 190 181 192 180 175 181 182 172 184 191 191 187 172 169 189
185 180 170 191 194 182 174 175 168 184 194 200 201 196 196 200 197 194 195 244 208 254 266 270 268 195 188 185 199 196 200 189 183 181 184 195 192 193 188 187 184 175 182 184 192 175 208 182 174
183 187 193 202 181 178 184 168 159 167 173 199 183 195 211 174 207 187 192 198 220 219 229 245 266 269 239 200 233 195 192 184 192 188 182 176 177 180 185 189 180 183 182 176 211 177 185 190 194
188 188 183 189 190 172 191 159 166 184 186 198 205 198 204 169 201 195 188 199 186 205 222 228 237 255 267 265 245 231 191 191 191 189 203 204 188 191 181 186 182 191 194 178 191 165 189 213 191
196 177 188 193 192 181 172 169 191 179 186 189 193 192 203 207 175 210 205 197 198 198 211 204 222 236 230 243 267 244 242 241 209 201 197 220 204 207 218 216 195 206 197 217 171 208 201 192 210
194 196 188 201 192 185 176 166 185 173 173 189 184 197 207 204 161 202 194 178 189 194 203 215 217 211 231 217 245 259 244 235 234 236 237 231 222 219 223 215 202 205 198 194 189 213 210 217 217
195 193 200 199 182 177 175 172 185 177 180 190 194 197 196 203 217 162 188 198 197 195 182 198 181 204 214 244 216 243 253 222 231 222 220 221 223 223 225 227 220 220 217 221 215 207 204 208 220
205 204 197 198 196 195 171 191 187 184 184 192 198 187 195 194 202 192 168 201 205 190 200 197 196 220 214 199 225 222 202 213 238 248 250 227 219 221 220 215 213 216 218 218 214 213 214 208 195
Wind_Speed
58 67 73 71 49 47 72 76 65 32 84 57 59 64 62 58 62 63 61 67 69 69 51 65 70 62 74 35 56 51 62 21 24 50 76 67 45 72 72 33 35 67 74 80 77 53 49 65 76
60 67 68 66 46 50 70 62 52 64 62 76 71 66 70 61 67 77 73 64 38 73 65 42 71 52 66 73 42 61 72 47 71 82 77 79 56 73 49 58 42 35 33 32 35 46 66 61 61
52 30 68 61 50 68 74 62 56 58 64 49 60 60 59 62 60 64 61 63 62 70 49 77 29 65 58 17 33 66 63 22 69 69 64 61 26 64 33 48 79 55 61 48 51 75 73 53 70
59 55 67 66 43 60 68 50 46 64 64 54 55 54 58 34 74 54 42 30 53 32 57 57 65 55 27 60 58 65 64 84 83 73 24 54 50 53 40 48 42 49 74 88 43 35 48 46 93
71 59 76 83 72 70 53 48 66 64 49 66 55 33 49 19 46 46 26 66 26 28 22 44 36 41 49 51 51 56 60 59 59 57 53 42 59 32 63 46 46 71 82 56 59 60 52 65 51
64 62 35 60 40 43 50 63 39 43 49 49 56 28 24 19 27 23 23 21 17 19 30 12 34 30 40 34 51 51 55 57 53 44 45 61 69 58 63 62 61 73 65 60 50 57 57 71 62
32 34 72 66 69 47 40 45 36 41 45 42 26 22 34 22 17 24 19 20 14 12 28 30 8 23 39 42 41 47 50 50 58 43 50 49 60 66 76 75 68 74 72 62 66 30 33 39 37
38 74 26 23 37 32 39 35 33 40 37 23 23 23 23 19 20 14 26 25 24 9 24 25 22 29 33 36 43 46 50 51 39 54 56 61 53 54 55 61 54 58 47 49 26 41 39 56 40
63 34 18 27 28 32 35 32 29 49 41 33 33 19 10 11 22 14 21 22 26 10 32 36 41 48 41 41 42 47 48 54 58 56 62 64 59 58 76 73 69 66 71 69 64 52 41 49 55
33 34 33 32 33 27 36 30 28 31 35 27 29 27 27 19 10 19 11 14 23 16 32 36 31 40 36 39 43 46 52 56 64 62 60 57 70 62 64 57 44 55 41 55 55 48 55 46 52
37 27 25 24 21 25 31 28 25 32 36 35 26 29 21 23 5 13 14 16 20 23 27 19 37 45 45 43 50 49 57 59 64 61 60 28 62 65 69 44 56 58 61 30 45 50 48 46 53
52 22 24 30 23 40 25 25 28 31 31 29 21 30 26 20 15 37 1 10 15 21 30 43 37 48 47 30 53 48 49 53 58 51 57 62 67 21 39 49 32 54 47 45 50 42 44 42 39
16 24 27 24 26 44 24 21 24 27 26 24 25 30 25 25 17 13 9 29 12 7 37 45 43 46 38 50 50 51 52 53 53 48 57 59 65 52 52 34 50 66 56 46 48 54 32 38 43
35 18 30 24 28 31 27 22 21 28 23 26 30 24 24 14 22 20 10 19 10 9 31 42 34 42 37 52 49 51 54 53 55 51 58 64 64 54 58 54 52 35 46 40 41 40 46 38 47
31 22 32 26 25 34 29 26 34 27 30 24 30 24 29 14 20 11 22 18 14 27 23 44 37 44 42 48 47 50 50 55 53 53 58 58 61 58 54 58 33 47 50 33 50 51 45 53 47
34 20 22 24 18 26 36 20 27 25 21 27 29 21 24 22 21 19 13 22 21 26 38 46 41 43 48 43 47 48 52 55 54 41 57 50 46 50 51 55 57 52 57 47 41 49 54 45 65
28 41 23 29 26 26 28 24 23 23 19 23 22 25 24 25 21 16 21 21 24 28 43 34 30 50 35 57 42 57 58 52 54 58 53 55 42 34 61 59 49 50 41 51 65 62 39 51 51
32 35 23 28 30 21 27 24 24 23 22 18 24 24 26 25 23 19 13 28 32 28 26 51 54 51 35 55 59 51 49 61 55 61 63 56 50 37 65 62 66 72 39 72 54 42 51 49 77
45 37 27 23 31 31 25 26 24 26 25 19 18 25 25 23 32 19 13 11 30 33 39 55 57 39 62 61 46 54 58 62 66 64 62 65 52 67 74 67 37 67 52 75 51 75 61 80 83
39 37 29 21 23 27 33 29 23 23 24 23 18 20 19 25 28 16 15 10 11 23 39 56 48 52 65 65 46 56 70 53 66 54 68 59 64 45 64 72 69 65 75 64 53 69 86 83 80
43 43 22 26 25 34 28 28 20 26 24 23 25 19 20 22 24 20 16 13 11 13 32 24 46 57 50 59 56 70 68 72 58 40 36 51 73 75 62 47 74 43 46 69 75 74 62 91 73
48 38 23 30 28 34 22 37 24 26 26 25 22 19 18 20 23 24 19 14 9 9 14 40 67 45 52 49 65 56 50 76 67 56 56 47 49 46 53 59 43 71 73 72 95 94 97 91 74
53 38 33 35 31 24 22 25 35 26 29 23 23 27 17 20 21 23 14 18 11 10 9 16 46 67 72 65 63 66 49 61 73 80 84 70 83 75 68 81 86 63 92 87 92 89 56 57 91
51 45 45 38 25 25 33 27 43 36 25 30 26 23 21 20 18 18 14 20 15 13 10 11 19 55 51 52 71 77 86 78 72 67 75 90 88 91 92 90 90 73 94 92 99 64 87 72 59
51 56 44 35 32 35 28 36 35 37 30 28 27 26 28 22 16 19 16 16 17 15 12 10 13 21 40 65 49 76 75 65 79 80 70 51 59 68 78 90 75 77 77 67 80 68 65 91 91
54 54 36 34 34 43 33 39 48 41 33 30 32 31 29 25 19 18 19 18 15 21 15 10 13 15 21 29 38 47 72 80 80 79 86 91 85 93 78 90 82 90 92 78 65 52 94 86 82
59 50 53 41 38 36 46 46 37 43 36 29 32 34 32 30 24 21 15 17 18 21 18 22 15 14 14 19 30 34 36 39 78 84 86 63 92 86 71 70 92 80 91 76 66 90 83 85 86
60 63 56 51 43 46 46 52 43 53 44 30 41 36 33 29 28 26 23 23 21 20 21 19 21 20 14 18 24 29 38 38 42 46 51 58 65 68 69 76 83 84 91 89 74 82 83 72 74
64 62 62 56 46 50 48 52 48 54 50 39 39 38 37 33 30 32 28 23 23 23 23 21 23 24 20 18 23 28 33 35 43 44 45 47 50 53 57 57 57 62 64 62 62 68 73 68 66
66 63 60 55 52 55 53 52 49 57 51 44 41 41 40 40 36 32 33 31 28 28 25 23 24 20 26 29 20 23 31 32 39 43 48 52 51 54 58 56 57 59 59 59 63 65 65 65 61
Wind_Direction
264 269 267 268 285 290 271 273 268 274 275 271 271 273 273 271 268 264 263 264 267 261 281 273 260 260 261 261 251 264 276 263 259 261 264 268 271 267 270 281 276 272 267 264 269 267 272 271 269
266 267 271 268 277 280 271 276 289 282 280 275 278 274 273 271 273 277 272 269 295 266 272 277 257 286 269 253 263 287 270 278 267 257 265 256 280 266 272 275 268 269 269 271 271 272 272 269 268
277 281 267 281 283 268 273 273 283 281 276 288 281 282 282 281 283 277 277 271 270 270 270 263 244 267 258 267 264 279 247 269 244 245 244 248 270 250 270 271 253 265 274 267 271 273 268 266 269
284 287 280 275 281 282 272 288 292 272 279 286 287 285 282 270 277 280 291 287 272 275 257 254 252 249 253 246 240 244 241 251 250 247 273 242 274 277 264 254 270 266 258 261 269 269 267 268 266
271 275 266 270 273 273 279 288 275 284 296 285 303 299 286 279 284 281 311 269 286 257 302 249 244 240 246 239 234 233 233 237 237 239 238 244 242 258 248 254 257 253 263 261 261 266 266 266 266
273 275 280 275 282 284 281 282 306 302 301 301 289 345 345 340 317 316 317 313 315 275 250 304 261 238 239 245 231 222 227 229 236 226 212 236 242 229 241 251 252 257 258 258 259 263 267 265 263
280 281 269 278 279 281 290 295 311 306 307 307 336 344 343 333 308 323 310 327 269 253 219 229 221 223 226 227 218 216 218 221 235 206 214 218 235 242 250 253 251 257 263 257 261 297 266 271 269
283 276 282 285 282 290 292 311 309 310 339 353 344 352 318 331 335 267 332 333 328 275 187 145 235 236 219 212 215 203 209 214 234 217 216 227 222 231 236 243 245 250 249 254 270 260 263 267 270
268 278 277 276 285 292 299 315 305 294 305 347 355 343 356 336 324 339 322 331 332 189 204 200 216 224 209 205 204 201 207 205 208 232 234 237 227 238 252 253 252 253 263 262 263 260 268 263 265
276 273 276 277 282 297 296 316 300 312 336 328 347 344 290 346 341 320 227 336 342 184 191 197 188 195 194 194 195 198 209 211 212 221 220 234 244 231 237 239 256 249 264 256 266 260 266 273 263
277 263 266 274 290 297 300 314 288 293 295 296 338 343 332 333 329 282 310 229 328 202 190 181 193 192 203 190 190 211 196 217 210 220 224 251 230 236 247 249 253 264 261 265 274 272 267 260 263
279 262 264 275 284 279 314 312 308 332 305 346 314 333 331 331 322 264 250 308 288 216 214 202 210 192 194 252 193 207 217 225 221 237 218 228 233 262 249 269 280 256 245 267 271 259 261 284 269
251 263 267 272 280 279 308 316 304 333 318 307 337 333 323 314 282 245 227 244 268 252 210 187 194 192 215 205 213 206 217 205 230 217 236 243 243 249 250 267 268 260 253 263 257 249 287 287 294
269 264 270 281 276 281 288 303 304 305 328 337 350 328 337 303 290 250 263 215 242 219 219 215 228 206 226 200 203 211 219 218 231 234 230 237 241 237 253 254 263 236 260 275 245 296 282 271 271
264 271 267 270 271 279 284 294 292 318 339 338 349 329 340 343 306 229 268 232 224 210 211 201 223 198 209 207 214 219 212 233 241 242 242 242 253 260 262 247 224 260 267 253 286 294 295 302 295
262 280 267 264 277 279 279 296 295 306 321 335 339 341 347 0 326 253 249 239 251 242 216 207 218 219 210 228 227 232 232 232 236 251 248 254 250 246 269 254 275 273 260 295 287 293 294 287 295
261 262 269 263 267 280 284 288 295 311 314 332 334 340 353 341 330 293 267 226 236 210 213 230 226 216 237 208 245 228 233 242 246 241 253 256 261 274 269 277 257 272 283 277 290 296 280 285 272
256 260 276 260 265 273 280 289 301 288 303 315 336 318 345 343 333 329 300 237 225 233 235 217 216 221 237 221 227 246 249 238 251 248 247 259 268 257 273 280 282 274 273 287 291 286 274 268 300
253 259 267 265 261 266 280 281 295 282 303 288 308 325 335 336 340 348 331 293 229 221 226 216 221 233 222 223 236 243 244 248 248 253 258 260 270 267 270 276 248 282 287 288 284 296 295 300 299
255 258 256 262 278 274 265 282 295 299 299 276 295 319 317 329 342 327 335 320 286 240 225 211 226 225 218 225 251 244 236 257 249 262 257 267 269 281 280 276 282 284 283 283 286 294 294 296 295
248 254 255 246 260 265 273 273 289 277 283 288 268 306 321 321 334 334 323 321 309 280 236 227 231 223 233 230 239 236 242 238 259 270 269 272 265 266 277 275 278 263 278 290 289 293 285 294 294
250 255 238 252 247 255 262 270 274 277 275 272 292 295 301 311 325 339 329 341 310 290 262 230 220 239 241 247 234 251 261 241 252 264 272 270 277 278 275 282 276 285 285 286 289 288 290 293 294
256 254 236 245 252 252 245 271 270 278 275 290 282 269 284 292 306 330 303 314 327 311 267 258 231 225 229 243 249 244 268 262 253 251 254 263 261 268 278 276 276 283 279 284 286 288 287 292 296
250 246 237 248 243 243 243 253 271 275 286 306 302 289 284 301 302 310 304 351 306 328 295 254 244 235 239 247 240 245 244 251 259 263 263 257 263 266 267 272 275 279 280 281 284 289 287 292 295
244 252 246 252 231 238 252 249 272 269 273 299 284 287 304 266 302 287 297 309 328 319 319 302 256 245 237 234 237 244 248 257 253 259 267 269 271 273 271 274 278 279 281 283 281 287 288 292 292
243 253 241 240 240 235 257 260 263 265 274 295 299 291 292 263 285 286 288 301 274 304 313 312 305 272 249 244 242 243 247 250 254 257 259 259 264 267 269 272 276 276 276 280 281 290 288 290 293
252 242 246 246 249 234 244 248 258 260 267 283 283 281 296 289 268 293 293 294 299 296 301 288 299 312 286 271 248 252 253 256 251 253 257 256 260 262 264 264 272 270 276 276 280 283 285 290 293
251 251 254 254 242 246 242 252 254 257 265 275 276 285 298 288 263 287 277 269 278 290 304 307 304 284 303 274 267 258 251 255 256 256 257 258 259 260 263 265 269 271 275 278 284 284 287 289 290
247 249 253 249 227 236 239 250 256 256 258 273 280 281 281 286 298 261 270 273 274 282 269 290 259 287 284 316 275 262 259 262 254 263 267 269 269 270 268 267 272 273 278 281 282 283 285 289 292
250 249 249 248 242 244 242 249 253 259 257 269 273 268 276 277 286 280 264 272 277 271 283 284 282 320 294 274 299 286 269 268 263 259 260 262 268 270 273 275 274 275 278 278 277 281 281 286 292